TimePDT,TemperatureF,Dew PointF,Humidity,Sea Level PressureIn,VisibilityMPH,Wind Direction,Wind SpeedMPH,Gust SpeedMPH,PrecipitationIn,Events,Conditions,WindDirDegrees,DateUTC
12:55 AM,48.9,43.0,80,30.14,10.0,Calm,Calm,-,N/A,,Clear,0,2011-10-22 07:55:00
1:55 AM,48.9,43.0,80,30.14,10.0,Calm,Calm,-,N/A,,Clear,0,2011-10-22 08:55:00
2:55 AM,48.9,43.0,80,30.14,10.0,ENE,4.6,-,N/A,,Clear,70,2011-10-22 09:55:00
3:55 AM,46.0,42.1,86,30.14,10.0,Variable,3.5,-,N/A,,Clear,0,2011-10-22 10:55:00
4:55 AM,44.1,41.0,89,30.13,10.0,East,3.5,-,N/A,,Clear,80,2011-10-22 11:55:00
5:55 AM,46.9,43.0,86,30.12,10.0,SE,3.5,-,N/A,,Clear,130,2011-10-22 12:55:00
6:55 AM,48.0,44.1,86,30.11,10.0,Calm,Calm,-,0.00,Rain,Light Rain,0,2011-10-22 13:55:00
7:55 AM,48.9,46.0,90,30.10,10.0,WNW,3.5,-,0.00,,Overcast,290,2011-10-22 14:55:00
8:55 AM,51.1,46.0,83,30.10,10.0,Calm,Calm,-,0.02,Rain,Light Rain,0,2011-10-22 15:55:00
9:55 AM,53.1,48.9,86,30.11,10.0,NW,5.8,-,0.00,Rain,Light Rain,310,2011-10-22 16:55:00
11:25 AM,55.4,51.8,88,30.08,10.0,Variable,6.9,-,N/A,,Partly Cloudy,0,2011-10-22 18:25:00
11:55 AM,57.9,48.9,72,30.08,10.0,WNW,11.5,-,N/A,,Clear,300,2011-10-22 18:55:00
12:55 PM,62.1,48.9,62,30.07,10.0,NW,9.2,-,N/A,,Clear,310,2011-10-22 19:55:00
1:55 PM,62.1,50.0,65,30.07,10.0,South,5.8,-,N/A,,Clear,180,2011-10-22 20:55:00
2:55 PM,64.9,48.9,56,30.06,10.0,Calm,Calm,-,N/A,,Clear,0,2011-10-22 21:55:00
3:55 PM,68.0,46.9,47,30.04,10.0,Calm,Calm,-,N/A,,Scattered Clouds,0,2011-10-22 22:55:00
4:55 PM,66.9,44.1,44,30.04,10.0,WSW,12.7,-,N/A,,Partly Cloudy,250,2011-10-22 23:55:00
5:55 PM,64.0,45.0,50,30.03,2.5,West,5.8,-,N/A,,Haze,270,2011-10-23 00:55:00
6:06 PM,64.4,44.6,49,30.03,3.0,West,4.6,16.1,N/A,,Haze,260,2011-10-23 01:06:00
6:18 PM,64.4,44.6,49,30.03,2.5,Variable,3.5,-,N/A,,Haze,0,2011-10-23 01:18:00
6:27 PM,64.4,44.6,49,30.03,4.0,Calm,Calm,-,N/A,,Haze,0,2011-10-23 01:27:00
6:55 PM,64.0,45.0,50,30.04,7.0,WSW,4.6,-,N/A,,Overcast,250,2011-10-23 01:55:00
7:23 PM,62.6,46.4,55,30.03,2.0,WNW,3.5,-,N/A,,Haze,300,2011-10-23 02:23:00
7:34 PM,62.6,46.4,55,30.03,4.0,Calm,Calm,-,N/A,,Haze,0,2011-10-23 02:34:00
7:55 PM,61.0,46.9,60,30.04,2.5,NNW,5.8,-,N/A,,Haze,330,2011-10-23 02:55:00
8:09 PM,60.8,46.4,59,30.03,6.0,North,5.8,-,N/A,,Haze,350,2011-10-23 03:09:00
8:55 PM,60.1,48.0,64,30.03,4.0,NW,5.8,-,N/A,,Haze,320,2011-10-23 03:55:00
9:50 PM,53.6,48.2,82,30.04,9.0,SSW,6.9,-,N/A,,Scattered Clouds,200,2011-10-23 04:50:00
9:55 PM,55.0,50.0,83,30.04,10.0,WSW,5.8,-,N/A,,Scattered Clouds,250,2011-10-23 04:55:00
10:55 PM,53.1,48.0,83,30.05,10.0,Calm,Calm,-,N/A,,Clear,0,2011-10-23 05:55:00
11:55 PM,51.1,48.0,89,30.06,10.0,Calm,Calm,-,N/A,,Clear,0,2011-10-23 06:55:00